CMB566 KPSM-EPGD

Flight info

Callsign CMB566
Flight time N/A
Altitude 35000
Route BEEKN Q480 ENE Q822 ALLEX N603A SAXAN/M086F350 DCT 54N046W 56N037W 58N028W 59N018W/N0493F350 DCT INNUF/N0497F370 DCT KOKAL/N0503F390 DCT RIGVU DCT RUMOG DCT KOVIK P990 AAL L621 KULUD DCT RUMAR L983 DOMAG T240 OGDAV
Aircraft B744/H-SDE3FGHIM1M2RWXY/LB1

Departure

Time 2026-04-19 12:23
Airport Portsmouth International Airport at Pease (KPSM)

Arrival

Time N/A
Airport Gdańsk Lech Wałęsa Airport (EPGD)
Time Latitude Longitude Altitude Speed Heading
2026-04-19 11:58 43.08176 -70.81789 87 ft 0 kts 43°
2026-04-19 12:10 43.08172 -70.81795 87 ft 2 kts 47°
2026-04-19 12:10 43.08164 -70.81812 87 ft 2 kts 69°
2026-04-19 12:11 43.08160 -70.81831 87 ft 2 kts 84°
2026-04-19 12:11 43.08160 -70.81850 88 ft 2 kts 101°
2026-04-19 12:11 43.08165 -70.81869 88 ft 2 kts 117°
2026-04-19 12:11 43.08173 -70.81885 89 ft 2 kts 134°
2026-04-19 12:12 43.08185 -70.81898 90 ft 2 kts 148°
2026-04-19 12:12 43.08192 -70.81904 90 ft 0 kts 148°
2026-04-19 12:15 43.08176 -70.81890 89 ft 5 kts 148°
2026-04-19 12:15 43.08169 -70.81884 89 ft 0 kts 148°
2026-04-19 12:17 43.08161 -70.81880 88 ft 4 kts 168°
2026-04-19 12:17 43.08113 -70.81916 87 ft 8 kts 239°
2026-04-19 12:17 43.08089 -70.81970 87 ft 4 kts 238°
2026-04-19 12:17 43.08078 -70.81995 87 ft 1 kts 242°
2026-04-19 12:18 43.08076 -70.81998 87 ft 0 kts 246°
2026-04-19 12:18 43.08066 -70.82048 87 ft 11 kts 274°
2026-04-19 12:18 43.08147 -70.82147 90 ft 20 kts 328°
2026-04-19 12:18 43.08270 -70.82250 95 ft 19 kts 329°
2026-04-19 12:19 43.08377 -70.82336 99 ft 16 kts 329°
2026-04-19 12:19 43.08472 -70.82415 103 ft 15 kts 329°
2026-04-19 12:19 43.08559 -70.82486 107 ft 14 kts 329°
2026-04-19 12:19 43.08642 -70.82553 110 ft 13 kts 329°
2026-04-19 12:20 43.08737 -70.82629 112 ft 19 kts 329°
2026-04-19 12:20 43.08870 -70.82742 115 ft 23 kts 328°
2026-04-19 12:20 43.08978 -70.82833 117 ft 9 kts 328°
2026-04-19 12:20 43.09001 -70.82853 117 ft 0 kts 328°
2026-04-19 12:21 43.09021 -70.82869 117 ft 11 kts 328°
2026-04-19 12:21 43.09132 -70.82961 115 ft 22 kts 329°
2026-04-19 12:21 43.09238 -70.83073 113 ft 16 kts 290°
2026-04-19 12:21 43.09203 -70.83207 109 ft 14 kts 238°
2026-04-19 12:22 43.09148 -70.83337 100 ft 16 kts 238°
2026-04-19 12:22 43.09068 -70.83357 97 ft 8 kts 146°
2026-04-19 12:22 43.09038 -70.83332 98 ft 2 kts 149°
2026-04-19 12:22 43.08922 -70.83239 103 ft 43 kts 149°
2026-04-19 12:23 43.08473 -70.82873 108 ft 108 kts 148°
2026-04-19 12:23 43.07652 -70.82205 71 ft 165 kts 148°
2026-04-19 12:23 43.06580 -70.81325 393 ft 184 kts 149°
2026-04-19 12:23 43.05496 -70.80417 1027 ft 189 kts 149°
2026-04-19 12:24 43.04387 -70.79452 1764 ft 188 kts 150°
2026-04-19 12:24 43.03319 -70.78482 2417 ft 186 kts 151°
2026-04-19 12:24 43.02262 -70.77493 2968 ft 186 kts 151°
2026-04-19 12:24 43.01237 -70.76425 3431 ft 190 kts 146°
2026-04-19 12:25 43.00365 -70.74996 3804 ft 205 kts 126°
2026-04-19 12:25 42.99818 -70.73144 4212 ft 216 kts 111°
2026-04-19 12:25 42.99404 -70.71240 4758 ft 205 kts 124°
2026-04-19 12:25 42.98482 -70.69800 4888 ft 202 kts 153°
2026-04-19 12:26 42.97286 -70.68733 5182 ft 213 kts 154°
2026-04-19 12:26 42.96028 -70.67500 5435 ft 231 kts 144°
2026-04-19 12:26 42.94951 -70.65823 5961 ft 238 kts 135°
2026-04-19 12:26 42.94029 -70.63924 6466 ft 246 kts 123°
2026-04-19 12:27 42.93553 -70.61613 6865 ft 263 kts 99°
2026-04-19 12:27 42.93759 -70.59084 7222 ft 278 kts 75°
2026-04-19 12:27 42.94651 -70.56728 7610 ft 286 kts 57°
2026-04-19 12:27 42.95626 -70.54371 8046 ft 286 kts 62°
2026-04-19 12:28 42.97852 -70.49760 8715 ft 305 kts 57°
2026-04-19 12:28 42.99041 -70.47346 9234 ft 306 kts 58°
2026-04-19 12:28 43.00152 -70.44897 9693 ft 308 kts 60°
2026-04-19 12:29 43.01276 -70.42380 10116 ft 313 kts 60°
2026-04-19 12:29 43.02425 -70.39824 10477 ft 320 kts 60°
2026-04-19 12:29 43.03593 -70.37219 10873 ft 325 kts 60°
2026-04-19 12:29 43.04804 -70.34554 11312 ft 329 kts 60°
2026-04-19 12:30 43.06006 -70.31908 11737 ft 331 kts 60°
2026-04-19 12:30 43.07240 -70.29222 12148 ft 334 kts 60°
2026-04-19 12:30 43.08464 -70.26552 12569 ft 336 kts 60°
2026-04-19 12:30 43.09703 -70.23846 12979 ft 338 kts 60°
2026-04-19 12:31 43.10968 -70.21092 13349 ft 342 kts 60°
2026-04-19 12:31 43.12228 -70.18350 13716 ft 344 kts 60°
2026-04-19 12:31 43.13512 -70.15568 14077 ft 347 kts 60°
2026-04-19 12:31 43.14807 -70.12781 14443 ft 349 kts 59°
2026-04-19 12:32 43.16098 -70.09988 14827 ft 351 kts 60°
2026-04-19 12:32 43.17406 -70.07153 15217 ft 352 kts 60°
2026-04-19 12:32 43.18708 -70.04308 15608 ft 352 kts 59°
2026-04-19 12:32 43.20001 -70.01503 15984 ft 353 kts 60°
2026-04-19 12:33 43.21332 -69.98639 16341 ft 354 kts 59°
2026-04-19 12:33 43.22640 -69.95791 16672 ft 356 kts 59°
2026-04-19 12:33 43.23965 -69.92910 16997 ft 358 kts 59°
2026-04-19 12:33 43.25293 -69.90049 17358 ft 358 kts 59°
2026-04-19 12:34 43.26620 -69.87163 17688 ft 359 kts 59°
2026-04-19 12:34 43.27954 -69.84275 17999 ft 361 kts 60°
2026-04-19 12:34 43.29290 -69.81379 18311 ft 362 kts 59°
2026-04-19 12:34 43.30629 -69.78468 18631 ft 362 kts 59°
2026-04-19 12:35 43.31981 -69.75536 18923 ft 361 kts 59°
2026-04-19 12:35 43.33308 -69.72653 19128 ft 365 kts 59°
2026-04-19 12:35 43.34567 -69.69560 19178 ft 374 kts 66°
2026-04-19 12:35 43.35691 -69.66327 19261 ft 383 kts 66°
2026-04-19 12:36 43.36752 -69.62940 19329 ft 390 kts 74°
2026-04-19 12:36 43.37644 -69.59392 19484 ft 398 kts 70°
2026-04-19 12:36 43.38696 -69.55840 19663 ft 404 kts 70°
2026-04-19 12:36 43.39892 -69.52321 19917 ft 408 kts 60°
2026-04-19 12:37 43.41352 -69.48998 20209 ft 410 kts 60°
2026-04-19 12:37 43.42812 -69.45646 20517 ft 411 kts 60°
2026-04-19 12:37 43.44271 -69.42295 20861 ft 411 kts 60°
2026-04-19 12:37 43.45744 -69.38940 21165 ft 412 kts 59°
2026-04-19 12:38 43.47225 -69.35541 21499 ft 412 kts 60°
2026-04-19 12:38 43.48685 -69.32194 21822 ft 413 kts 60°
2026-04-19 12:38 43.50170 -69.28799 22132 ft 413 kts 60°
2026-04-19 12:38 43.51637 -69.25424 22428 ft 414 kts 60°
2026-04-19 12:39 43.53114 -69.22039 22713 ft 416 kts 60°
2026-04-19 12:39 43.54611 -69.18604 23007 ft 417 kts 60°
2026-04-19 12:39 43.56102 -69.15179 23301 ft 418 kts 60°
2026-04-19 12:39 43.57595 -69.11741 23590 ft 419 kts 60°
2026-04-19 12:40 43.59081 -69.08340 23878 ft 420 kts 60°
2026-04-19 12:40 43.60593 -69.04861 24161 ft 422 kts 60°
2026-04-19 12:40 43.62100 -69.01425 24428 ft 424 kts 60°
2026-04-19 12:40 43.63638 -68.97914 24689 ft 426 kts 60°
2026-04-19 12:41 43.65175 -68.94431 24958 ft 428 kts 60°
2026-04-19 12:41 43.66705 -68.90939 25262 ft 429 kts 60°
2026-04-19 12:41 43.68255 -68.87440 25555 ft 430 kts 60°
2026-04-19 12:41 43.69810 -68.83934 25846 ft 431 kts 60°
2026-04-19 12:42 43.71368 -68.80404 26141 ft 432 kts 60°
2026-04-19 12:42 43.72953 -68.76838 26429 ft 433 kts 60°
2026-04-19 12:42 43.74501 -68.73330 26691 ft 435 kts 60°
2026-04-19 12:42 43.76099 -68.69733 26955 ft 436 kts 60°
2026-04-19 12:43 43.77687 -68.66187 27224 ft 437 kts 60°
2026-04-19 12:43 43.79290 -68.62598 27482 ft 439 kts 60°